Regional Weather Roundup
Issued by NWS Cleveland, OH

Home | Current Version | Previous Version | Text Only | Print | Product List | Glossary On
Versions: 1 2 3 4 5 6 7 8 9 10 11 12 13 14 15 16 17 18 19 20 21 22 23 24 25 26 27 28 29 30 31 32 33 34 35 36 37 38 39 40 41 42 43 44 45 46 47 48 49 50
000
ASUS41 KCLE 231712
RWRCLE
OHIO REGIONAL WEATHER ROUNDUP
NATIONAL WEATHER SERVICE WILMINGTON, OH
1200 PM EST THU FEB 23 2017

NOTE: "FAIR" INDICATES FEW OR NO CLOUDS BELOW 12,000 FEET WITH NO
SIGNIFICANT WEATHER AND/OR OBSTRUCTIONS TO VISIBILITY.

OHZ001>008-015>018-024>027-034-035-043-044-231800-
   NORTHWEST OHIO

CITY           SKY/WX    TMP DP  RH WIND       PRES   REMARKS
DEFIANCE       FAIR      61  49  64 SW7       29.76R
FINDLAY        CLOUDY    62  51  67 SW12      29.76S
TOLEDO EXPRESS FAIR      63  52  67 W13       29.74S
TOLEDO EXEC    FAIR      63  52  67 SW12      29.74F
LIMA           CLOUDY    60  56  86 SW14      29.78S
$$

OHZ009>014-019>023-028>033-038-089-231800-
   NORTHEAST OHIO

CITY           SKY/WX    TMP DP  RH WIND       PRES   REMARKS
CLE-HOPKINS    CLOUDY    63  53  70 SW16      29.78S
CLE-LAKEFRONT  CLOUDY    61  52  72 SW13      29.74S
CUY CO. ARPT   CLOUDY    64  55  72 W13       29.76S
LORAIN-ELYRIA  CLOUDY    61  52  72 W18       29.77S
ASHTABULA      CLOUDY    63  55  75 SW17G23   29.75S
AKRON-CANTON   CLOUDY    62  54  74 SW14      29.78F
WOOSTER        CLOUDY    63  55  75 W14       29.78S
MANSFIELD      CLOUDY    60  55  83 SW16G23   29.79S
YOUNGSTOWN     CLOUDY    61  54  77 SW12G20   29.77S
$$

OHZ042-051>053-060>062-070>072-077>081-231800-
  SOUTHWEST OHIO

CITY           SKY/WX    TMP DP  RH WIND       PRES   REMARKS
CINC-COVINGTON PTSUNNY   65  57  75 SW7       29.81S
CINC-LUNKEN    CLOUDY    68  59  73 S13       29.81F
HAMILTON       CLOUDY    70  58  65 VRB3      29.81F
DAYTON         PTSUNNY   63  56  78 SW14      29.80F
WRIGHT-PAT AFB CLOUDY    65  60  83 SW12      29.80S
DAYTON GENERAL CLOUDY    65  57  75 SW12      29.79F
WILMINGTON     CLOUDY    63  57  81 SW13      29.80F
$$

OHZ036-037-039>041-045>050-054>059-063>069-073>076-082>088-231800-
  CENTRAL AND SOUTHEAST OHIO

CITY           SKY/WX    TMP DP  RH WIND       PRES   REMARKS
COLUMBUS       CLOUDY    66  57  72 SW10      29.80S
OSU AIRPORT    CLOUDY    64  58  80 SW10      29.79F
BOLTON FIELD   CLOUDY    64  57  77 SW12G18   29.81S
RICKENBACK AFB CLOUDY    64  58  79 SW13      29.80F
NEWARK         CLOUDY    65  56  72 SW9       29.80F
MARION         CLOUDY    61  55  81 SW9       29.79S
LANCASTER      PTSUNNY   68  57  68 SW8       29.82S
ZANESVILLE     PTSUNNY   66  55  67 SW12      29.81F
NEW PHILLY     CLOUDY    63  55  75 S6        29.80F
$$




USA.gov is the U.S. government's official web portal to all federal, state and local government web resources and services.